Regional Weather Roundup
Issued by NWS

Home | Current Version | Previous Version | Text Only | Print | Product List | Glossary On
Versions: 1 2 3 4 5 6 7 8 9 10 11 12 13 14 15 16 17 18 19 20 21 22 23 24 25 26 27 28 29 30 31 32 33 34 35 36 37 38 39 40 41 42 43 44 45 46 47 48 49 50
426
ASCA44 KEWX 091120
RWRMX

LATIN AMERICA AND CARIBBEAN REGIONAL WEATHER ROUNDUP
NATIONAL WEATHER SERVICE AUSTIN/SAN ANTONIO TX
500 AM CST FRI DEC 09 2016

NOTE: "FAIR" INDICATED FEW OR NO CLOUDS BELOW 12,000 FEET WITH NO
SIGNIFICANT WEATHER AND/OR OBSTRUCTIONS TO VISIBILITY.

BAJA CALIFORNIA

CITY           SKY/WX    TMP DP  RH WIND       PRES   REMARKS
S.J. DEL CABO    N/A    N/A N/A N/A MISG        N/A
TIJUANA        PTCLDY    50  45  81 CALM      30.29

NORTHWESTERN MEXICO

CITY           SKY/WX    TMP DP  RH WIND       PRES   REMARKS
DURANGO        CLEAR     36  32  87 W2        30.40
HERMOSILLO     CLEAR     52  43  71 CALM      30.10F

NORTHEASTERN MEXICO

CITY           SKY/WX    TMP DP  RH WIND       PRES   REMARKS
MONCLOVA         N/A    N/A N/A N/A MISG        N/A
MONTERREY      CLOUDY    41  32  70 NW15      30.52S WCI  33
NUEVO LAREDO   CLOUDY    43  28  56 N6        30.58  WCI  39
REYNOSA        CLOUDY    41  28  60 N9G21     30.54  WCI  35
TORREON        MOCLDY    50  41  71 CALM      30.39
CD. VICTORIA     N/A    N/A N/A N/A MISG        N/A

WESTERN MEXICO

CITY           SKY/WX    TMP DP  RH WIND       PRES   REMARKS
AGUASCALIENTES CLEAR     48  45  87 N9        30.36  WCI  44
COLIMA           N/A    N/A N/A N/A MISG        N/A
DEL BAJIO      CLEAR     54  48  82 N5        30.37R
GUADALAJARA    CLEAR     48  45  87 CALM      30.26
MAZATLAN       CLEAR     54  52  94 NE5       29.98F
P. VALLARTA    CLEAR     64  63  94 CALM      29.96
URUAPAN          N/A    N/A N/A N/A MISG        N/A
ZACATECAS      CLEAR     37  27  65 CALM      30.39

CENTRAL MEXICO

CITY           SKY/WX    TMP DP  RH WIND       PRES   REMARKS
CUERNAVACA       N/A    N/A N/A N/A MISG        N/A
MEXICO CITY    MOCLDY    57  46  67 N8        30.41R
MORELIA        CLEAR     43  41  93 CALM      30.31
POZA RICA        N/A    N/A N/A N/A MISG        N/A
QUERETARO      MOCLDY    54  52  94 E9        30.42S
S. LUIS POTOSI CLOUDY    52  45  76 E9        30.39
TOLUCA         MOCLDY    41  39  93 W3        30.46  FOG

SOUTHERN MEXICO

CITY           SKY/WX    TMP DP  RH WIND       PRES   REMARKS
ACAPULCO       PTCLDY    75  73  94 N3        29.92S
B. DE HUATULCO   N/A    N/A N/A N/A MISG        N/A
P. ESCONDIDO     N/A    N/A N/A N/A MISG        N/A
VERACRUZ         N/A    N/A N/A N/A MISG        N/A

YUCATAN PENINSULA

CITY           SKY/WX    TMP DP  RH WIND       PRES   REMARKS
CAMPECHE       CLEAR     75  75 100 SE6       30.02
CANCUN         PTCLDY    68  68 100 NW2       30.07R
CHETUMAL         N/A    N/A N/A N/A MISG        N/A
CD. DEL CARMEN   N/A    N/A N/A N/A MISG        N/A
COZUMEL        CLEAR     66  66 100 CALM      30.05R
MERIDA         CLOUDY    73  72  94 E3        30.04R
MINATITLAN     PTCLDY    72  64  78 NW17G35   30.06
TAPACHULA      PTCLDY    75  73  94 CALM      29.90R
VILLAHERMOSA   CLOUDY    77  77 100 E89       30.05  FOG

CENTRAL AMERICA

CITY           SKY/WX    TMP DP  RH WIND       PRES   REMARKS
BELIZE CITY    PTCLDY    75  73  94 CALM      30.04
MANAGUA        MOSUNNY   73  68  83 CALM      29.86F

CARIBBEAN

CITY           SKY/WX    TMP DP  RH WIND       PRES   REMARKS
ARUBA          TSTM      75  72  88 NE5       29.89
CURACAO        PTCLDY    79  75  89 SE9       29.89R
KINGSTON       PTCLDY    79  72  78 N13       29.97R
NASSAU         PTCLDY    73  70  88 CALM      30.09R
SAN JUAN       PTCLDY    79  73  83 VRB3      30.02R
SANTO DOMINGO  PTCLDY    70  68  94 N6        30.00S
ST. CROIX      PTCLDY    79  73  83 NE7       30.01
ST. KITTS      PTCLDY    81  73  78 NE10      30.00R
ST. MAARTEN    PTCLDY    81  75  83 E9        30.00S
ST. THOMAS     PTCLDY    79  75  89 E7        30.00

$$





USA.gov is the U.S. government's official web portal to all federal, state and local government web resources and services.